Location: Camps Bay
(33.9517°S, 18.3844°E)
Time: 19:27:13
(UTC+00:00)

Cosmos 1300 Rocket - Pass Details

Date: 18 January 2020
Orbit: 603 x 625 km, 82.5° (Epoch: 21 February)

Event Time Altitude Azimuth Distance (km) Brightness Sun altitude
Rises 01:09:35 0° 190° (S) 2,910 7.6 -26.9°
Reaches altitude 10° 01:11:51 10° 192° (SSW) 1,993 6.7 -26.6°
Enters shadow 01:15:03 46° 208° (SSW) 834 4.3 -26.2°
